Weather History for Taylorville, IL

Change the Weather History Date:

Saturday, November 10, 2012

  Actual Average (KSPI) Record (KSPI)
Temperature  
Mean Temperature 63 °F 46 °F  
Max Temperature 73 °F 55 °F 75 °F (1999)
Min Temperature 53 °F 36 °F 17 °F (1973)
Degree Days  
Heating Degree Days 2 19  
Month to date heating degree days 172  
Since 1 July heating degree days 582  
Cooling Degree Days 0 0  
Month to date cooling degree days 0  
Year to date cooling degree days 1121  
Growing Degree Days 13 (Base 50)    
Moisture  
Dew Point 48 °F    
Average Humidity 63    
Maximum Humidity 88    
Minimum Humidity 38    
Precipitation  
Precipitation 0.00 in 0.10 in 1.27 in (1984)
Month to date precipitation 1.03  
Year to date precipitation 32.73  
Snow  
Snow 0.00 in 0.00 in 0.10 in (1900)
Month to date snowfall 0.1  
Since 1 July snowfall 0.1  
Since 1 September snowfall 0.1  
Snow Depth -    
Sea Level Pressure  
Sea Level Pressure 29.96 in    
Wind  
Wind Speed 15 mph (South)    
Max Wind Speed 24 mph    
Max Gust Speed 33 mph    
Visibility 10 miles    
Events      
T = Trace of Precipitation, MM = Missing Value Source: NWS Daily Summary

Daily Weather History Graph

Daily Weather History Graph

Search for Another Location

Airport:

Trip Planner

Search our weather history database for the weather conditions in past years. The results will help you decide how hot, cold, wet, or windy it might be!

Date:

Astronomy

Nov. 10, 2012 Rise Set
Actual Time 6:36 AM CST 4:45 PM CST
Civil Twilight 6:07 AM CST 5:14 PM CST
Nautical Twilight 5:35 AM CST 5:46 PM CST
Astronomical Twilight 5:03 AM CST 6:18 PM CST
Moon 2:42 AM CST (11/10) 2:31 PM CST (11/10)
Length of Visible Light 11h 06m
Length of Day
10h 09m
Waning Crescent, 14% of the Moon is Illuminated
Nov 10
Waning Crescent
Nov 13
New
Nov 20
First Quarter
Nov 28
Full
Dec 6
Last Quarter

Hourly Weather History & Observations

Time (CST) Temp. Dew Point Humidity Pressure Visibility Wind Dir Wind Speed Gust Speed Precip Events Conditions
12:15 AM 55.4 °F 51.8 °F 88% 29.99 in 10.0 mi South 12.7 mph - N/A   Clear
12:35 AM 55.4 °F 50.0 °F 82% 29.99 in 10.0 mi South 11.5 mph - N/A   Clear
12:55 AM 55.4 °F 48.2 °F 77% 29.99 in 10.0 mi South 9.2 mph - N/A   Clear
1:15 AM 53.6 °F 48.2 °F 82% 29.99 in 10.0 mi South 9.2 mph - N/A   Clear
1:35 AM 53.6 °F 48.2 °F 82% 30.00 in 10.0 mi South 10.4 mph - N/A   Clear
1:55 AM 53.6 °F 48.2 °F 82% 30.00 in 10.0 mi South 10.4 mph - N/A   Clear
2:15 AM 53.6 °F 48.2 °F 82% 30.00 in 10.0 mi South 10.4 mph - N/A   Clear
2:35 AM 53.6 °F 48.2 °F 82% 30.00 in 10.0 mi South 12.7 mph - N/A   Clear
2:55 AM 53.6 °F 46.4 °F 77% 29.99 in 10.0 mi South 10.4 mph 16.1 mph N/A   Clear
3:15 AM 53.6 °F 46.4 °F 77% 29.99 in 10.0 mi South 12.7 mph - N/A   Clear
3:35 AM 53.6 °F 46.4 °F 77% 29.99 in 10.0 mi SSE 11.5 mph - N/A   Clear
3:55 AM 53.6 °F 44.6 °F 72% 30.00 in 10.0 mi South 11.5 mph - N/A   Clear
4:15 AM 53.6 °F 44.6 °F 72% 30.00 in 10.0 mi South 12.7 mph - N/A   Scattered Clouds
4:35 AM 53.6 °F 44.6 °F 72% 30.00 in 10.0 mi South 12.7 mph - N/A   Scattered Clouds
4:55 AM 53.6 °F 44.6 °F 72% 30.00 in 10.0 mi South 13.8 mph - N/A   Clear
5:15 AM 53.6 °F 44.6 °F 72% 30.00 in 10.0 mi South 13.8 mph - N/A   Clear
5:35 AM 53.6 °F 44.6 °F 72% 29.99 in 10.0 mi South 13.8 mph - N/A   Clear
5:55 AM 53.6 °F 44.6 °F 72% 29.99 in 10.0 mi South 13.8 mph - N/A   Clear
6:15 AM 53.6 °F 44.6 °F 72% 29.99 in 10.0 mi South 15.0 mph - N/A   Clear
6:35 AM 53.6 °F 44.6 °F 72% 30.00 in 10.0 mi South 13.8 mph 20.7 mph N/A   Clear
6:55 AM 53.6 °F 44.6 °F 72% 30.00 in 10.0 mi South 15.0 mph 20.7 mph N/A   Clear
7:15 AM 55.4 °F 44.6 °F 67% 30.00 in 10.0 mi South 16.1 mph 21.9 mph N/A   Clear
7:35 AM 55.4 °F 44.6 °F 67% 30.00 in 10.0 mi South 18.4 mph 24.2 mph N/A   Clear
7:55 AM 55.4 °F 46.4 °F 72% 30.00 in 10.0 mi South 18.4 mph 25.3 mph N/A   Scattered Clouds
8:15 AM 55.4 °F 46.4 °F 72% 30.00 in 10.0 mi South 12.7 mph - N/A   Clear
8:35 AM 55.4 °F 46.4 °F 72% 30.00 in 10.0 mi South 15.0 mph - N/A   Clear
8:55 AM 57.2 °F 48.2 °F 72% 29.99 in 10.0 mi South 17.3 mph 21.9 mph N/A   Clear
9:15 AM 60.8 °F 48.2 °F 63% 29.99 in 10.0 mi South 18.4 mph 24.2 mph N/A   Clear
9:35 AM 60.8 °F 48.2 °F 63% 29.98 in 10.0 mi South 17.3 mph 23.0 mph N/A   Clear
9:55 AM 64.4 °F 50.0 °F 59% 29.97 in 10.0 mi South 16.1 mph 25.3 mph N/A   Clear
10:15 AM 64.4 °F 51.8 °F 64% 29.97 in 10.0 mi South 20.7 mph 25.3 mph N/A   Clear
10:35 AM 66.2 °F 51.8 °F 60% 29.97 in 10.0 mi South 20.7 mph 29.9 mph N/A   Clear
10:55 AM 68.0 °F 51.8 °F 56% 29.96 in 10.0 mi South 23.0 mph 32.2 mph N/A   Clear
11:15 AM 69.8 °F 51.8 °F 53% 29.95 in 10.0 mi South 21.9 mph 28.8 mph N/A   Clear
11:35 AM 69.8 °F 51.8 °F 53% 29.95 in 10.0 mi South 18.4 mph 24.2 mph N/A   Clear
11:55 AM 69.8 °F 51.8 °F 53% 29.94 in 10.0 mi South 18.4 mph 25.3 mph N/A   Clear
12:15 PM 71.6 °F 51.8 °F 50% 29.94 in 10.0 mi South 18.4 mph - N/A   Clear
12:35 PM 71.6 °F 50.0 °F 46% 29.94 in 10.0 mi South 18.4 mph 26.5 mph N/A   Clear
12:55 PM 73.4 °F 50.0 °F 44% 29.93 in 10.0 mi South 16.1 mph 26.5 mph N/A   Clear
1:15 PM 73.4 °F 46.4 °F 38% 29.92 in 10.0 mi South 20.7 mph 28.8 mph N/A   Clear
1:35 PM 71.6 °F 46.4 °F 41% 29.91 in 10.0 mi South 18.4 mph 27.6 mph N/A   Clear
1:55 PM 71.6 °F 46.4 °F 41% 29.91 in 10.0 mi South 21.9 mph 28.8 mph N/A   Clear
2:15 PM 71.6 °F 46.4 °F 41% 29.91 in 10.0 mi South 17.3 mph 31.1 mph N/A   Clear
2:35 PM 71.6 °F 46.4 °F 41% 29.91 in 10.0 mi South 23.0 mph 32.2 mph N/A   Clear
2:55 PM 71.6 °F 46.4 °F 41% 29.91 in 10.0 mi South 17.3 mph 26.5 mph N/A   Clear
3:15 PM 71.6 °F 48.2 °F 43% 29.91 in 10.0 mi South 24.2 mph 33.4 mph N/A   Clear
3:35 PM 69.8 °F 48.2 °F 46% 29.91 in 10.0 mi South 18.4 mph 26.5 mph N/A   Clear
3:55 PM 69.8 °F 48.2 °F 46% 29.92 in 10.0 mi South 15.0 mph 23.0 mph N/A   Clear
4:15 PM 66.2 °F 50.0 °F 56% 29.92 in 10.0 mi South 21.9 mph 26.5 mph N/A   Clear
4:35 PM 66.2 °F 50.0 °F 56% 29.93 in 10.0 mi South 20.7 mph 27.6 mph N/A   Clear
4:55 PM 64.4 °F 50.0 °F 59% 29.94 in 10.0 mi South 17.3 mph 26.5 mph N/A   Clear
5:15 PM 64.4 °F 50.0 °F 59% 29.94 in 10.0 mi South 20.7 mph 27.6 mph N/A   Clear
5:35 PM 64.4 °F 50.0 °F 59% 29.95 in 10.0 mi South 18.4 mph 27.6 mph N/A   Clear
5:55 PM 62.6 °F 50.0 °F 63% 29.96 in 10.0 mi South 19.6 mph - N/A   Clear
6:15 PM 62.6 °F 50.0 °F 63% 29.97 in 10.0 mi SSE 17.3 mph 24.2 mph N/A   Clear
6:35 PM 62.6 °F 50.0 °F 63% 29.97 in 10.0 mi SSE 17.3 mph - N/A   Clear
6:55 PM 62.6 °F 51.8 °F 68% 29.97 in 10.0 mi SSE 16.1 mph 23.0 mph N/A   Clear
7:15 PM 62.6 °F 51.8 °F 68% 29.97 in 10.0 mi South 19.6 mph 28.8 mph N/A   Clear
7:35 PM 62.6 °F 51.8 °F 68% 29.97 in 10.0 mi South 23.0 mph 28.8 mph N/A   Clear
7:55 PM 62.6 °F 51.8 °F 68% 29.97 in 10.0 mi South 23.0 mph 28.8 mph N/A   Clear
8:15 PM 62.6 °F 50.0 °F 63% 29.97 in 10.0 mi South 18.4 mph 24.2 mph N/A   Clear
8:35 PM 60.8 °F 48.2 °F 63% 29.97 in 10.0 mi SSE 18.4 mph 27.6 mph N/A   Clear
8:55 PM 60.8 °F 48.2 °F 63% 29.96 in 10.0 mi SSE 19.6 mph 25.3 mph N/A   Clear
9:15 PM 60.8 °F 46.4 °F 59% 29.96 in 10.0 mi SSE 19.6 mph 26.5 mph N/A   Clear
9:35 PM 60.8 °F 46.4 °F 59% 29.96 in 10.0 mi South 20.7 mph 26.5 mph N/A   Clear
9:55 PM 60.8 °F 46.4 °F 59% 29.96 in 10.0 mi South 20.7 mph 26.5 mph N/A   Clear
10:15 PM 60.8 °F 46.4 °F 59% 29.94 in 10.0 mi South 23.0 mph 28.8 mph N/A   Clear
10:35 PM 60.8 °F 46.4 °F 59% 29.94 in 10.0 mi South 24.2 mph 32.2 mph N/A   Clear
10:55 PM 60.8 °F 46.4 °F 59% 29.94 in 10.0 mi South 23.0 mph 31.1 mph N/A   Clear
11:15 PM 60.8 °F 44.6 °F 55% 29.94 in 10.0 mi South 21.9 mph 29.9 mph N/A   Clear
11:35 PM 60.8 °F 44.6 °F 55% 29.94 in 10.0 mi South 19.6 mph 31.1 mph N/A   Clear
11:55 PM 59.0 °F 44.6 °F 59% 29.94 in 10.0 mi South 20.7 mph 28.8 mph N/A   Clear